TimeMDT,TemperatureF,Dew PointF,Humidity,Sea Level PressureIn,VisibilityMPH,Wind Direction,Wind SpeedMPH,Gust SpeedMPH,PrecipitationIn,Events,Conditions,WindDirDegrees,DateUTC
12:53 AM,43.0,21.9,43,29.86,10.0,Calm,Calm,-,N/A,,Mostly Cloudy,0,2013-10-20 06:53:00
1:53 AM,37.9,25.0,60,29.88,10.0,ESE,4.6,-,N/A,,Mostly Cloudy,120,2013-10-20 07:53:00
2:53 AM,37.0,25.0,62,29.88,10.0,East,3.5,-,N/A,,Mostly Cloudy,90,2013-10-20 08:53:00
3:53 AM,46.0,21.0,37,29.83,10.0,SSE,3.5,-,N/A,,Mostly Cloudy,160,2013-10-20 09:53:00
4:53 AM,39.0,26.1,60,29.86,10.0,ESE,4.6,-,N/A,,Mostly Cloudy,120,2013-10-20 10:53:00
5:53 AM,42.1,24.1,49,29.87,10.0,Calm,Calm,-,N/A,,Mostly Cloudy,0,2013-10-20 11:53:00
6:53 AM,36.0,25.0,64,29.91,10.0,South,4.6,-,N/A,,Mostly Cloudy,190,2013-10-20 12:53:00
7:53 AM,39.0,24.1,55,29.92,10.0,East,5.8,-,N/A,,Mostly Cloudy,90,2013-10-20 13:53:00
8:53 AM,45.0,26.1,48,29.94,10.0,ESE,4.6,-,N/A,,Mostly Cloudy,120,2013-10-20 14:53:00
9:53 AM,46.9,28.0,48,29.98,10.0,NE,9.2,19.6,N/A,,Mostly Cloudy,50,2013-10-20 15:53:00
10:53 AM,44.1,30.0,58,30.05,10.0,ENE,9.2,-,N/A,,Mostly Cloudy,60,2013-10-20 16:53:00
11:53 AM,43.0,32.0,65,30.06,10.0,NNE,10.4,-,N/A,,Mostly Cloudy,20,2013-10-20 17:53:00
12:15 PM,44.6,33.8,66,30.05,10.0,NE,9.2,-,N/A,,Overcast,40,2013-10-20 18:15:00
12:53 PM,45.0,35.1,68,30.02,10.0,NE,8.1,-,N/A,,Overcast,40,2013-10-20 18:53:00
1:53 PM,44.1,34.0,68,30.03,10.0,NE,9.2,-,N/A,,Overcast,40,2013-10-20 19:53:00
2:53 PM,42.1,34.0,73,30.04,10.0,NNE,8.1,-,N/A,,Overcast,30,2013-10-20 20:53:00
3:33 PM,39.2,35.6,87,30.04,10.0,ENE,11.5,-,N/A,,Overcast,60,2013-10-20 21:33:00
3:53 PM,39.9,34.0,79,30.03,10.0,NE,11.5,-,0.00,Rain,Light Rain,40,2013-10-20 21:53:00
4:53 PM,35.1,33.1,92,30.12,3.0,NNE,16.1,-,0.02,Rain,Rain,20,2013-10-20 22:53:00
5:01 PM,35.6,33.8,93,30.09,2.5,North,12.7,-,0.01,Rain,Light Rain,10,2013-10-20 23:01:00
5:04 PM,35.6,33.8,93,30.09,2.5,NNE,10.4,-,0.02,Rain,Light Rain,20,2013-10-20 23:04:00
5:16 PM,35.6,33.8,93,30.09,3.0,North,11.5,-,0.03,Rain,Light Rain,10,2013-10-20 23:16:00
5:53 PM,36.0,34.0,93,30.14,3.0,NNE,9.2,-,0.03,Rain,Light Rain,20,2013-10-20 23:53:00
6:02 PM,35.6,33.8,93,30.11,3.0,North,11.5,-,0.01,Rain,Light Rain,10,2013-10-21 00:02:00
6:13 PM,35.6,33.8,93,30.12,2.0,North,9.2,-,0.01,Rain,Light Rain,360,2013-10-21 00:13:00
6:15 PM,35.6,33.8,93,30.12,1.5,North,8.1,-,0.01,Rain-Snow,Light Snow,10,2013-10-21 00:15:00
6:39 PM,33.8,32.0,93,30.12,2.0,Calm,Calm,-,0.04,Snow,Light Snow,0,2013-10-21 00:39:00
6:53 PM,33.1,32.0,96,30.18,3.0,SW,4.6,-,0.04,Snow,Light Snow,220,2013-10-21 00:53:00
7:53 PM,35.1,34.0,96,30.17,6.0,WSW,11.5,-,0.00,,Overcast,250,2013-10-21 01:53:00
8:53 PM,35.1,33.1,92,30.15,10.0,WSW,6.9,-,0.00,,Overcast,240,2013-10-21 02:53:00
9:53 PM,34.0,32.0,92,30.16,10.0,WSW,6.9,-,N/A,,Scattered Clouds,240,2013-10-21 03:53:00
10:53 PM,32.0,30.9,96,30.18,10.0,SSW,4.6,-,N/A,,Partly Cloudy,200,2013-10-21 04:53:00
11:53 PM,30.9,28.9,92,30.18,10.0,SSW,5.8,-,N/A,,Partly Cloudy,200,2013-10-21 05:53:00